Change the Weather History Date:

Tuesday, September 24, 2013

  Actual Average Record
Temperature  
Mean Temperature 65 °F 64 °F  
Max Temperature 71 °F 73 °F 93 °F (1978)
Min Temperature 58 °F 55 °F 48 °F (1955)
Degree Days  
Heating Degree Days 0 2  
Month to date heating degree days 12 48  
Since 1 July heating degree days 127 161  
Cooling Degree Days 0 1  
Month to date cooling degree days 37 39  
Year to date cooling degree days 137 136  
Growing Degree Days 15 (Base 50)    
Moisture  
Dew Point 52 °F    
Average Humidity 66    
Maximum Humidity 78    
Minimum Humidity 53    
Precipitation  
Precipitation 0.00 in 0.01 in 0.18 in (1986)
Month to date precipitation 0.23 0.11  
Year to date precipitation 2.12 13.23  
Since 1 July precipitation 0.23 0.15  
Sea Level Pressure  
Sea Level Pressure 29.97 in    
Wind  
Wind Speed 19 mph (West)    
Max Wind Speed 36 mph    
Max Gust Speed 43 mph    
Visibility 10 miles    
Events      
T = Trace of Precipitation, MM = Missing Value Source: NWS Daily Summary

Daily Weather History Graph

Daily Weather History Graph

Search for Another Location

Airport or City:

Trip Planner

Search our weather history database for the weather conditions in past years. The results will help you decide how hot, cold, wet, or windy it might be!

Date:

Astronomy

Sep. 24, 2013 Rise Set
Actual Time 6:59 AM PDT 7:02 PM PDT
Civil Twilight 6:33 AM PDT 7:28 PM PDT
Nautical Twilight 6:02 AM PDT 7:59 PM PDT
Astronomical Twilight 5:31 AM PDT 8:30 PM PDT
Moon 10:30 PM PDT (9/24) 12:12 PM PDT (9/24)
Length of Visible Light 12h 55m
Length of Day
12h 03m
Waning Gibbous, 72% of the Moon is Illuminated
Sep 24
Waning Gibbous
Sep 26
Last Quarter
Oct 4
New
Oct 11
First Quarter
Oct 18
Full

Hourly Weather History & Observations

Time (PDT) Temp. Dew Point Humidity Pressure Visibility Wind Dir Wind Speed Gust Speed Precip Events Conditions
12:56 AM 61.0 °F 52.0 °F 72% 29.96 in 10.0 mi WNW 10.4 mph - N/A   Partly Cloudy
1:56 AM 60.1 °F 52.0 °F 75% 29.96 in 10.0 mi WNW 8.1 mph - N/A   Partly Cloudy
2:56 AM 62.1 °F 52.0 °F 70% 29.95 in 10.0 mi WNW 6.9 mph - N/A   Partly Cloudy
3:56 AM 60.1 °F 51.1 °F 72% 29.95 in 10.0 mi WNW 9.2 mph - N/A   Clear
4:56 AM 61.0 °F 51.1 °F 70% 29.96 in 10.0 mi West 18.4 mph - N/A   Clear
5:56 AM 61.0 °F 51.1 °F 70% 29.97 in 10.0 mi West 10.4 mph - N/A   Clear
6:56 AM 60.1 °F 50.0 °F 69% 29.98 in 10.0 mi West 18.4 mph - N/A   Partly Cloudy
7:56 AM 61.0 °F 52.0 °F 72% 29.99 in 10.0 mi West 19.6 mph 26.5 mph N/A   Scattered Clouds
8:56 AM 62.1 °F 53.1 °F 72% 29.99 in 10.0 mi West 18.4 mph - N/A   Mostly Cloudy
9:56 AM 64.9 °F 54.0 °F 68% 30.01 in 10.0 mi West 17.3 mph - N/A   Scattered Clouds
10:56 AM 66.9 °F 52.0 °F 59% 30.01 in 10.0 mi West 15.0 mph - N/A   Partly Cloudy
11:56 AM 69.1 °F 53.1 °F 57% 30.01 in 10.0 mi West 21.9 mph 26.5 mph N/A   Partly Cloudy
12:56 PM 69.1 °F 53.1 °F 57% 30.01 in 10.0 mi West 27.6 mph 34.5 mph N/A   Partly Cloudy
1:56 PM 69.1 °F 52.0 °F 54% 29.98 in 10.0 mi West 20.7 mph 32.2 mph N/A   Partly Cloudy
2:56 PM 69.1 °F 53.1 °F 57% 29.97 in 10.0 mi West 26.5 mph 35.7 mph N/A   Partly Cloudy
3:56 PM 68.0 °F 54.0 °F 61% 29.96 in 10.0 mi West 33.4 mph 41.4 mph N/A   Partly Cloudy
4:56 PM 66.0 °F 54.0 °F 65% 29.95 in 10.0 mi West 20.7 mph 28.8 mph N/A   Partly Cloudy
5:56 PM 64.0 °F 52.0 °F 65% 29.93 in 10.0 mi West 20.7 mph 28.8 mph N/A   Partly Cloudy
6:56 PM 61.0 °F 53.1 °F 75% 29.94 in 10.0 mi West 20.7 mph 27.6 mph N/A   Partly Cloudy
7:56 PM 61.0 °F 52.0 °F 72% 29.93 in 10.0 mi WNW 17.3 mph 28.8 mph N/A   Partly Cloudy
8:56 PM 60.1 °F 51.1 °F 72% 29.94 in 10.0 mi West 27.6 mph 33.4 mph N/A   Partly Cloudy
9:56 PM 59.0 °F 50.0 °F 72% 29.95 in 10.0 mi West 20.7 mph - N/A   Clear
10:56 PM 59.0 °F 50.0 °F 72% 29.95 in 10.0 mi West 18.4 mph - N/A   Clear
11:56 PM 59.0 °F 50.0 °F 72% 29.94 in 10.0 mi West 20.7 mph - N/A   Clear